Location: Goettingen
(51.5300°N, 9.9433°E)
Time: 22:44:41
(UTC+01:00)

ISS - Pass Details

Date: 04 December 2024
Orbit: 411 x 421 km, 51.6° (Epoch: 03 December)

Event Time Altitude Azimuth Distance (km) Brightness Sun altitude
Rises 17:42:20 0° 278° (W) 2,372 1.3 -13.1°
Reaches altitude 10° 17:45:37 10° 243° (WSW) 1,503 0.5 -13.6°
Maximum altitude 17:46:47 11° 223° (SW) 1,416 -0.1 -13.8°
Drops below altitude 10° 17:47:57 10° 202° (SSW) 1,499 -0.4 -13.9°
Sets 17:51:14 0° 168° (SSE) 2,357 0.1 -14.4°
